Вернуться в каталог

TATIANA 2

АктивенНаукаSSO
NORAD 35868·PAYLOAD·🇷🇺 Russia

Запущен Sep 17, 2009 с Baikonur Cosmodrome

Loading…

Ближайшие Пролёты (ближайшие 24 часа)

TLE

СвежийSource: Space-Track

Эпоха: Sep 14, 2026, 07:08 UTC

1 35868U 09049D   26257.29769127  .00000101  00000-0  63059-4 0  9996
2 35868  98.7290 218.8288 0004571  28.3241 331.8185 14.24254576882378

Отслеживайте TATIANA 2 в реальном времени с AllMySat

Download on the App Store